Location: Newark
(25.4800°N, 85.7200°E)
Time: 07:58:38
(UTC+00:00)

Transit 2A - All Passes

Search period start: 24 August 2019 00:00
Search period end: 03 September 2019 00:00
Orbit: 597 x 962 km, 66.7° (Epoch: 23 August)

Date Brightness Start Highest point End Pass type
(mag) Time Alt. Az. Time Alt. Az. Time Alt. Az.
24 Aug - 01:52:46 10° S 01:58:24 35° ESE 02:03:47 10° NE daylight
24 Aug - 03:36:16 10° WSW 03:41:33 28° WNW 03:46:35 10° N daylight
24 Aug - 12:31:45 10° N 12:36:01 41° ENE 12:40:05 10° SE daylight
24 Aug - 14:18:12 10° W 14:18:35 10° WSW 14:18:59 10° WSW visible
25 Aug - 01:19:38 10° SSE 01:24:23 23° ESE 01:28:59 10° ENE daylight
25 Aug - 03:01:28 10° SW 03:07:21 42° WNW 03:12:56 10° N daylight
25 Aug - 11:58:07 10° N 12:01:49 24° ENE 12:05:21 10° ESE daylight
25 Aug - 13:41:39 10° WNW 13:44:41 18° WSW 13:47:38 10° SSW visible
26 Aug - 00:47:13 10° SE 00:50:26 14° ESE 00:53:33 10° ENE daylight
26 Aug - 02:26:59 10° SSW 02:33:12 63° WNW 02:39:06 10° NNE daylight
26 Aug - 11:24:57 10° NNE 11:27:33 15° ENE 11:30:05 10° E daylight
26 Aug - 13:06:47 10° NW 13:10:43 31° WSW 13:14:31 10° S visible
27 Aug - 01:52:46 10° SSW 01:59:07 87° ESE 02:05:05 10° NNE daylight
27 Aug - 03:41:02 10° WNW 03:42:46 11° NW 03:44:28 10° NW daylight
27 Aug - 12:32:21 10° NNW 12:36:43 56° WSW 12:40:55 10° S daylight
28 Aug - 01:18:52 10° S 01:25:02 58° ESE 01:30:52 10° NNE daylight
28 Aug - 03:04:31 10° W 03:08:26 17° WNW 03:12:14 10° NNW daylight
28 Aug - 11:58:11 10° NNW 12:02:40 82° ENE 12:06:58 10° SSE daylight
29 Aug - 00:45:15 10° S 00:50:59 38° ESE 00:56:27 10° NE daylight
29 Aug - 02:29:07 10° WSW 02:34:11 26° WNW 02:39:00 10° N daylight
29 Aug - 11:24:15 10° N 11:28:33 45° ENE 11:32:41 10° SE daylight
30 Aug - 00:12:02 10° SSE 00:16:58 25° ESE 00:21:45 10° NE daylight
30 Aug - 01:54:13 10° SW 01:59:59 38° WNW 02:05:26 10° N daylight
30 Aug - 10:50:34 10° N 10:54:23 27° ENE 10:58:03 10° ESE daylight
30 Aug - 12:34:28 10° WNW 12:37:10 16° WSW 12:39:50 10° SW daylight
30 Aug - 23:39:24 10° SE 23:43:00 16° ESE 23:46:29 10° ENE daylight
31 Aug - 01:19:41 10° SW 01:25:51 58° WNW 01:31:38 10° NNE daylight
31 Aug - 10:17:16 10° NNE 10:20:08 17° ENE 10:22:55 10° E daylight
31 Aug - 11:59:28 10° NW 12:03:14 28° WSW 12:06:53 10° SSW daylight
01 Sep - 00:45:26 10° SSW 00:51:44 86° WNW 00:57:38 10° NNE daylight
01 Sep - 11:24:57 10° NW 11:29:14 49° WSW 11:33:22 10° S daylight
02 Sep - 00:11:27 10° S 00:17:39 63° ESE 00:23:29 10° NNE daylight
02 Sep - 01:57:34 10° W 02:01:05 16° WNW 02:04:30 10° NNW daylight
02 Sep - 10:50:44 10° NNW 10:55:11 89° WSW 10:59:29 10° SSE daylight
02 Sep - 23:37:46 10° S 23:43:36 41° ESE 23:49:07 10° NE daylight
